Location: Complexul Astronomic Baia Mare
(47.6577°N, 23.5639°E)
Time: 06:55:58
(UTC+03:00)

ISS - Pass Details

Date: 27 May 2017
Orbit: 402 x 408 km, 51.6° (Epoch: 29 May)

Event Time Altitude Azimuth Distance (km) Brightness Sun altitude
Rises 03:35:24 0° 291° (WNW) 2,331 -0.1 -14.9°
Reaches altitude 10° 03:37:35 10° 283° (WNW) 1,466 -1.2 -14.7°
Maximum altitude 03:40:37 35° 215° (SW) 672 -3.3 -14.4°
Drops below altitude 10° 03:43:38 10° 148° (SSE) 1,455 -1.3 -14.1°
Sets 03:45:48 0° 139° (SE) 2,309 -0.1 -13.9°
